When you browse on this site, cookies collect data to enhance your experience and personalize the content and advertising you see.
Visit our Privacy Policy to learn more. By continuing to use the site, you agree to this use of cookies and data.
  • în România
  • Lista ţărilor
  • Pe 7 zile
  • Temperatura apei
  • Hartă satelitară
  • Meteo pe hartă
  • Widget-uri
  • user-avatar
    Intrare

    Meteo pe oră la Brecon

    Astăzi, 16 Ianuarie, Miercuri

    Timp Temperatura Precipitaţii Vânt Presiune Umiditate
    00:00 +7°C° 0.3 mm 8 m/s 742 mmHg 91%
    01:00 +7°C° 0.6 mm 9 m/s 741 mmHg 91%
    02:00 +7°C° 0.6 mm 9 m/s 741 mmHg 91%
    03:00 +7°C° 0.6 mm 9 m/s 740 mmHg 91%
    04:00 +7°C° 0.5 mm 9 m/s 739 mmHg 90%
    05:00 +7°C° 0.5 mm 8 m/s 738 mmHg 89%
    06:00 +7°C° 0.5 mm 8 m/s 737 mmHg 88%
    07:00 +7°C° 0.1 mm 8 m/s 737 mmHg 87%
    08:00 +6°C° 0.1 mm 8 m/s 736 mmHg 86%
    09:00 +6°C° 0.1 mm 8 m/s 736 mmHg 85%
    10:00 +6°C° 0.6 mm 8 m/s 736 mmHg 84%
    11:00 +5°C° 0.6 mm 7 m/s 736 mmHg 84%
    12:00 +4°C° 0.6 mm 7 m/s 736 mmHg 83%
    13:00 +4°C° 0.1 mm 7 m/s 736 mmHg 80%
    14:00 +4°C° 0.1 mm 7 m/s 736 mmHg 77%
    15:00 +5°C° 0.1 mm 7 m/s 736 mmHg 73%
    16:00 +4°C° 0.1 mm 7 m/s 735 mmHg 75%
    17:00 +3°C° 0.1 mm 7 m/s 735 mmHg 77%
    18:00 +3°C° 0.1 mm 6 m/s 735 mmHg 79%
    19:00 +3°C° 0.1 mm 7 m/s 735 mmHg 79%
    20:00 +3°C° 0.1 mm 7 m/s 735 mmHg 79%
    21:00 +2°C° 0.1 mm 7 m/s 736 mmHg 79%
    22:00 +2°C° 0 mm 7 m/s 736 mmHg 80%
    23:00 +2°C° 0 mm 7 m/s 736 mmHg 81%

    Mâine, 17 Ianuarie, Joi

    Timp Temperatura Precipitaţii Vânt Presiune Umiditate
    00:00 +2°C° 0 mm 7 m/s 737 mmHg 82%
    01:00 +2°C° 0 mm 6 m/s 737 mmHg 82%
    02:00 +2°C° 0 mm 6 m/s 738 mmHg 83%
    03:00 +1°C° 0 mm 5 m/s 739 mmHg 83%
    04:00 +1°C° 0 mm 5 m/s 739 mmHg 83%
    05:00 +1°C° 0 mm 5 m/s 740 mmHg 84%
    06:00 +1°C° 0 mm 5 m/s 741 mmHg 84%
    07:00 +1°C° 0 mm 5 m/s 742 mmHg 85%
    08:00 0°C° 0 mm 5 m/s 743 mmHg 86%
    09:00 0°C° 0 mm 5 m/s 744 mmHg 87%
    10:00 +1°C° 0 mm 5 m/s 745 mmHg 78%
    11:00 +1°C° 0 mm 5 m/s 745 mmHg 69%
    12:00 +1°C° 0 mm 5 m/s 746 mmHg 61%
    13:00 +1°C° 0 mm 4 m/s 746 mmHg 62%
    14:00 +2°C° 0 mm 3 m/s 747 mmHg 63%
    15:00 +3°C° 0 mm 2 m/s 747 mmHg 64%
    16:00 +3°C° 0 mm 1 m/s 747 mmHg 66%
    17:00 +3°C° 0 mm 1 m/s 747 mmHg 68%
    18:00 +1°C° 0 mm 0 m/s 747 mmHg 70%
    19:00 +2°C° 0 mm 1 m/s 747 mmHg 70%
    20:00 +2°C° 0 mm 1 m/s 747 mmHg 71%
    21:00 +1°C° 0 mm 2 m/s 747 mmHg 71%
    22:00 0°C° 0 mm 3 m/s 747 mmHg 71%
    23:00 +1°C° 0 mm 3 m/s 747 mmHg 72%

    Poimâine, 18 Ianuarie, Vineri

    Timp Temperatura Precipitaţii Vânt Presiune Umiditate
    00:00 0°C° 0 mm 4 m/s 746 mmHg 72%
    01:00 0°C° 0 mm 4 m/s 746 mmHg 71%
    02:00 0°C° 0 mm 5 m/s 745 mmHg 71%
    03:00 0°C° 0 mm 5 m/s 744 mmHg 70%
    04:00 -1°C° 0.1 mm 6 m/s 743 mmHg 74%
    05:00 +1°C° 0.1 mm 6 m/s 742 mmHg 77%
    06:00 0°C° 0.1 mm 7 m/s 741 mmHg 81%
    07:00 +2°C° 0.7 mm 7 m/s 741 mmHg 84%
    08:00 +2°C° 0.7 mm 8 m/s 740 mmHg 88%
    09:00 +4°C° 0.7 mm 8 m/s 740 mmHg 91%
    10:00 +4°C° 2.5 mm 7 m/s 740 mmHg 92%
    11:00 +4°C° 2.5 mm 7 m/s 739 mmHg 93%
    12:00 +5°C° 2.5 mm 6 m/s 739 mmHg 94%
    13:00 +6°C° 0.1 mm 5 m/s 738 mmHg 92%
    14:00 +6°C° 0.1 mm 4 m/s 738 mmHg 90%
    15:00 +7°C° 0.1 mm 3 m/s 737 mmHg 87%
    16:00 +7°C° 0.1 mm 2 m/s 737 mmHg 87%
    17:00 +6°C° 0.1 mm 2 m/s 737 mmHg 86%
    18:00 +6°C° 0.1 mm 2 m/s 737 mmHg 86%
    19:00 +5°C° 0.1 mm 2 m/s 737 mmHg 87%
    20:00 +5°C° 0.1 mm 2 m/s 737 mmHg 87%
    21:00 +5°C° 0.1 mm 2 m/s 737 mmHg 88%
    22:00 +5°C° 0.2 mm 2 m/s 737 mmHg 89%
    23:00 +5°C° 0.2 mm 3 m/s 737 mmHg 91%

    19 Ianuarie, Sâmbătă

    Timp Temperatura Precipitaţii Vânt Presiune Umiditate
    00:00 +5°C° 0.2 mm 3 m/s 737 mmHg 93%
    01:00 +5°C° 0 mm 2 m/s 736 mmHg 93%
    02:00 +5°C° 0 mm 2 m/s 736 mmHg 93%
    03:00 +5°C° 0 mm 2 m/s 736 mmHg 94%
    04:00 +4°C° 0 mm 2 m/s 736 mmHg 94%
    05:00 +4°C° 0 mm 2 m/s 736 mmHg 95%
    06:00 +4°C° 0 mm 2 m/s 736 mmHg 96%
    07:00 +4°C° 0 mm 2 m/s 736 mmHg 95%
    08:00 +4°C° 0 mm 2 m/s 736 mmHg 95%
    09:00 +4°C° 0 mm 2 m/s 737 mmHg 95%
    10:00 +5°C° 0 mm 2 m/s 737 mmHg 93%
    11:00 +5°C° 0 mm 2 m/s 737 mmHg 90%
    12:00 +6°C° 0 mm 2 m/s 738 mmHg 88%
    13:00 +6°C° 0 mm 2 m/s 738 mmHg 88%
    14:00 +5°C° 0 mm 3 m/s 738 mmHg 89%
    15:00 +5°C° 0 mm 3 m/s 738 mmHg 89%
    16:00 +4°C° 0 mm 3 m/s 738 mmHg 90%
    17:00 +3°C° 0 mm 3 m/s 739 mmHg 92%
    18:00 +3°C° 0 mm 3 m/s 739 mmHg 94%
    19:00 +2°C° 0 mm 3 m/s 740 mmHg 94%
    20:00 +2°C° 0 mm 3 m/s 740 mmHg 94%
    21:00 +2°C° 0 mm 3 m/s 741 mmHg 94%
    22:00 +2°C° 0 mm 3 m/s 741 mmHg 94%
    23:00 +2°C° 0 mm 3 m/s 742 mmHg 94%

    20 Ianuarie, Duminică

    Timp Temperatura Precipitaţii Vânt Presiune Umiditate
    00:00 +2°C° 0 mm 3 m/s 742 mmHg 94%
    01:00 +2°C° 0 mm 3 m/s 743 mmHg 95%
    02:00 +2°C° 0 mm 3 m/s 743 mmHg 95%
    03:00 +3°C° 0 mm 3 m/s 744 mmHg 96%
    04:00 +3°C° 0 mm 3 m/s 744 mmHg 96%
    05:00 +3°C° 0 mm 3 m/s 745 mmHg 96%
    06:00 +3°C° 0 mm 3 m/s 745 mmHg 96%
    07:00 +3°C° 0.1 mm 3 m/s 746 mmHg 95%
    08:00 +3°C° 0.1 mm 3 m/s 747 mmHg 95%
    09:00 +3°C° 0.1 mm 3 m/s 747 mmHg 94%
    10:00 +3°C° 0.1 mm 3 m/s 748 mmHg 93%
    11:00 +4°C° 0.1 mm 3 m/s 748 mmHg 91%
    12:00 +4°C° 0.1 mm 3 m/s 749 mmHg 89%
    13:00 +4°C° 0 mm 3 m/s 749 mmHg 87%
    14:00 +4°C° 0 mm 3 m/s 749 mmHg 86%
    15:00 +4°C° 0 mm 3 m/s 749 mmHg 84%
    16:00 +4°C° 0 mm 3 m/s 750 mmHg 86%
    17:00 +3°C° 0 mm 3 m/s 750 mmHg 88%
    18:00 +1°C° 0 mm 4 m/s 751 mmHg 90%
    19:00 +2°C° 0 mm 3 m/s 751 mmHg 90%
    20:00 +1°C° 0 mm 3 m/s 752 mmHg 91%
    21:00 0°C° 0 mm 3 m/s 752 mmHg 91%
    22:00 0°C° 0 mm 3 m/s 752 mmHg 91%
    23:00 0°C° 0 mm 3 m/s 753 mmHg 91%

    21 Ianuarie, Luni

    Timp Temperatura Precipitaţii Vânt Presiune Umiditate
    00:00 -1°C° 0 mm 2 m/s 753 mmHg 91%
    01:00 -1°C° 0 mm 2 m/s 753 mmHg 91%
    02:00 -1°C° 0 mm 2 m/s 753 mmHg 91%
    03:00 -1°C° 0 mm 2 m/s 753 mmHg 91%
    04:00 -1°C° 0 mm 2 m/s 753 mmHg 91%
    05:00 +1°C° 0 mm 1 m/s 753 mmHg 91%
    06:00 0°C° 0 mm 1 m/s 753 mmHg 90%
    07:00 +1°C° 0 mm 1 m/s 752 mmHg 89%
    08:00 +1°C° 0 mm 1 m/s 752 mmHg 89%
    09:00 +1°C° 0 mm 1 m/s 752 mmHg 88%
    10:00 +2°C° 0 mm 1 m/s 752 mmHg 84%
    11:00 +2°C° 0 mm 2 m/s 751 mmHg 81%
    12:00 +3°C° 0 mm 3 m/s 751 mmHg 77%
    13:00 +3°C° 0 mm 3 m/s 750 mmHg 79%
    14:00 +3°C° 0 mm 3 m/s 749 mmHg 81%
    15:00 +4°C° 0 mm 4 m/s 748 mmHg 83%
    16:00 +3°C° 0.1 mm 5 m/s 747 mmHg 84%
    17:00 +3°C° 0.1 mm 6 m/s 746 mmHg 85%
    18:00 +4°C° 0.1 mm 6 m/s 745 mmHg 86%
    19:00 +4°C° 0.6 mm 7 m/s 744 mmHg 87%
    20:00 +4°C° 0.6 mm 8 m/s 743 mmHg 89%
    21:00 +3°C° 0.6 mm 9 m/s 742 mmHg 90%
    22:00 +3°C° 0.8 mm 7 m/s 742 mmHg 87%
    23:00 +2°C° 0.8 mm 6 m/s 741 mmHg 85%
    Arată mai mult